Vorticity
8 9 8 6 6 6 7 7 7 6 5 5 5 5 4 4 3 3 4 4 3 2 1 1 1 1 2 4 8 13 17 19 18 17 15 14 13 13 12 11 10 9 8 7 6 5 5 4 4 4 3 3 3 3 4 4 4 4 5 5 5 5 5 6 6 6 6 6 6 6 5 5 4 3 3 2 2 2 3 3 4 4 4 5 5 5 5 5 5 5 5 5 5 5 5 5 6 6 6 6 6 6 6
11 10 8 6 5 5 6 7 7 6 5 5 5 5 4 3 3 3 4 3 2 2 1 1 1 1 2 6 10 14 17 18 17 16 15 14 13 12 12 10 9 8 7 6 6 5 4 4 4 4 3 3 4 4 4 4 4 5 5 5 5 5 5 6 6 6 6 6 6 6 5 4 4 3 2 2 2 3 3 4 4 4 4 5 5 5 5 5 5 5 5 5 5 5 5 5 5 5 6 6 6 5 5
11 9 7 6 6 5 6 6 6 6 5 5 6 5 4 3 3 4 4 3 2 1 1 1 1 2 4 7 11 15 17 17 16 15 14 14 13 12 11 10 9 8 7 6 5 5 4 4 4 4 3 3 4 4 4 4 5 5 5 5 5 5 6 6 6 6 6 6 6 5 5 4 3 2 2 2 3 3 3 4 4 4 5 5 5 5 5 5 5 5 5 5 5 5 5 5 5 5 5 5 5 5 5
8 6 6 7 6 5 5 6 6 6 5 6 6 5 4 3 3 4 4 3 2 1 1 1 1 3 5 9 12 15 16 16 15 15 14 13 12 11 10 9 8 7 6 5 5 4 4 4 3 3 3 3 3 4 4 4 5 5 5 5 5 6 6 6 6 6 6 6 6 5 4 3 3 2 2 2 3 4 4 4 4 4 5 5 5 5 5 5 5 5 5 5 5 5 5 5 5 5 5 5 5 5 5
6 4 4 7 7 6 5 5 6 6 5 6 6 5 4 3 3 4 3 2 2 1 1 1 2 3 6 10 13 15 15 15 15 14 14 13 12 11 10 9 7 6 5 5 4 4 3 3 3 3 3 3 3 4 4 4 5 5 5 5 6 6 6 6 6 6 6 6 5 4 4 3 2 2 2 3 4 4 4 5 5 5 5 5 5 5 5 5 5 5 5 5 5 5 5 5 5 5 5 5 5 5 5
6 4 4 6 7 6 5 5 5 5 5 6 6 5 4 4 4 4 3 2 1 1 1 1 2 4 7 11 13 14 14 14 14 14 14 12 11 10 9 8 7 6 5 4 4 4 3 3 3 3 3 3 4 4 4 4 5 5 5 6 6 6 6 7 6 6 6 5 5 4 3 2 2 2 3 4 4 4 5 5 5 5 5 5 5 5 5 5 5 5 5 5 5 5 5 5 5 5 5 5 5 5 5
7 4 4 6 7 7 5 5 5 5 5 6 6 5 4 4 4 4 3 2 1 1 0 1 2 5 8 11 13 14 14 14 14 14 13 12 10 9 8 7 6 5 5 4 4 3 3 3 3 3 3 3 4 4 4 5 5 6 6 6 6 6 7 7 7 6 6 5 4 3 2 2 2 3 3 4 4 5 5 5 5 5 5 5 5 5 5 5 5 5 5 5 5 5 5 5 5 5 5 5 5 5 5
8 5 3 5 6 6 5 5 5 5 5 6 5 5 4 4 4 4 3 2 1 0 0 1 3 5 9 12 13 13 13 13 13 13 13 11 10 9 8 7 6 5 4 4 4 3 3 3 3 3 3 3 4 4 5 5 5 6 6 6 6 7 7 7 7 6 6 5 4 2 2 2 3 3 4 4 5 5 5 5 5 5 5 5 5 5 5 5 5 5 5 5 5 5 5 5 5 5 5 5 5 5 5
7 5 3 4 5 6 5 5 4 4 5 6 5 5 4 4 4 3 2 1 1 0 1 1 3 6 9 12 13 12 12 13 13 13 12 10 9 8 7 6 6 5 4 4 3 3 2 2 3 3 3 4 4 5 5 5 6 6 6 6 6 7 7 7 6 6 5 4 3 2 2 2 3 4 5 5 5 5 5 5 5 5 5 5 5 5 5 5 5 5 5 5 5 5 5 5 5 5 5 5 5 5 5
8 6 4 4 5 5 5 5 4 4 5 5 5 5 4 4 4 3 2 1 1 0 1 2 4 6 10 12 12 12 11 12 13 13 12 10 8 8 7 6 6 5 4 4 3 3 2 2 3 3 3 4 5 5 6 6 6 6 6 6 6 7 7 6 6 5 4 3 2 2 2 3 4 5 5 5 5 5 5 5 5 5 5 5 5 5 5 5 5 5 5 5 5 5 5 5 5 5 5 5 5 5 5
9 8 6 5 4 5 5 4 4 5 5 5 5 5 4 4 4 3 2 1 1 1 1 2 4 7 10 11 12 11 11 12 12 13 11 9 8 7 7 6 5 5 4 4 3 2 2 2 3 3 3 4 5 6 6 6 6 6 6 6 7 7 7 6 5 4 3 2 2 2 3 4 5 5 5 5 5 5 5 5 4 4 4 5 5 5 5 5 5 5 5 5 5 5 5 5 5 5 5 5 5 5 5
9 9 7 5 5 4 5 4 4 5 5 5 5 5 4 4 4 3 2 1 1 1 1 2 4 7 10 11 11 11 11 11 12 12 11 9 8 7 7 6 5 5 4 3 3 2 2 2 3 3 4 5 6 6 7 6 6 6 6 7 7 7 7 6 5 4 3 2 2 3 4 5 5 5 5 5 5 5 5 5 5 5 4 4 4 4 4 4 5 5 5 5 5 5 5 5 5 5 5 5 5 5 5
9 9 8 6 5 5 5 4 5 5 5 5 5 5 4 4 3 3 2 2 1 1 1 3 5 7 10 11 11 11 10 11 12 12 11 9 7 7 6 6 5 4 4 3 3 2 2 3 3 4 5 5 6 7 7 7 7 7 6 7 7 7 6 5 4 3 3 3 3 4 5 5 5 5 5 5 4 4 4 4 4 4 4 4 4 4 4 4 5 5 5 5 5 5 5 5 5 5 5 5 5 5 5
8 9 8 6 5 5 5 5 5 5 5 5 5 4 4 4 3 3 3 2 1 1 1 3 5 7 9 11 11 11 10 11 11 12 10 8 7 7 6 6 5 4 4 3 3 2 2 3 3 4 5 6 6 7 7 7 7 7 7 7 7 6 6 5 4 3 3 3 4 5 5 5 5 4 4 4 4 4 4 4 4 4 4 4 4 4 4 5 5 5 5 5 5 5 5 5 5 5 5 5 5 5 5
9 9 8 7 6 5 5 5 5 5 4 5 5 4 4 4 3 3 3 2 1 1 2 3 5 7 9 10 11 10 10 11 11 11 10 8 7 7 6 6 5 4 3 3 3 3 3 3 4 5 6 6 7 7 7 7 7 7 7 7 7 6 5 4 3 3 3 3 4 4 5 4 4 4 4 4 4 4 4 4 4 4 4 4 4 4 4 5 5 5 5 5 5 5 5 5 5 5 5 5 5 5 5
9 9 8 7 6 5 5 5 5 5 4 5 5 4 4 4 3 3 3 2 1 1 2 3 5 7 9 10 11 10 10 11 11 11 10 8 8 7 6 6 5 4 3 3 3 3 3 4 5 5 6 7 7 7 7 7 7 7 7 7 6 6 5 4 3 3 3 3 4 4 4 4 4 3 3 3 3 3 4 4 4 4 4 4 4 4 4 5 5 5 5 5 5 5 5 5 5 5 5 5 5 5 5
10 9 8 7 6 5 5 5 5 5 4 5 5 4 4 4 3 3 3 2 1 1 2 3 5 7 9 10 10 10 10 11 11 11 10 9 8 7 6 6 5 4 4 3 3 4 4 5 5 6 7 7 7 7 7 7 7 7 7 7 6 5 4 3 3 3 3 4 4 4 4 3 3 3 3 3 3 3 3 3 3 3 4 4 4 4 4 5 5 5 5 5 5 5 5 5 5 5 5 5 5 5 5
11 10 8 7 6 5 4 5 5 4 4 4 4 4 4 4 3 3 3 2 1 1 2 3 4 6 8 9 10 10 10 10 11 11 10 9 8 7 6 6 5 4 4 4 4 4 5 5 6 7 7 7 7 7 7 7 7 7 7 6 6 5 3 2 2 3 3 4 4 4 3 3 3 3 3 3 3 3 3 3 3 3 4 4 4 4 4 4 5 5 5 5 5 5 5 5 5 5 5 5 5 5 5
12 11 9 7 6 5 4 4 4 4 4 4 4 4 4 4 3 3 3 2 1 1 1 3 4 6 8 9 10 10 10 10 11 10 9 8 8 7 6 6 5 5 4 4 5 5 5 6 7 7 7 7 7 7 7 7 7 7 7 6 5 4 3 2 2 3 3 4 3 3 3 2 2 2 2 2 3 3 3 3 3 3 4 4 4 4 4 4 4 5 5 5 5 5 5 5 5 5 5 5 5 5 5
12 11 9 7 6 5 4 4 4 4 4 4 4 4 4 3 3 3 3 2 1 1 1 3 4 6 8 9 10 10 10 10 10 10 9 8 7 7 6 6 6 5 5 5 5 6 6 7 7 7 7 7 7 7 7 7 7 7 7 6 5 4 3 3 3 3 3 3 3 2 3 2 2 2 2 3 3 3 3 3 3 3 4 4 4 4 4 4 4 5 5 5 5 5 5 5 5 5 5 5 5 5 5
11 11 9 7 6 5 4 4 4 4 5 5 4 3 3 3 3 3 3 2 1 1 1 3 4 6 8 9 9 10 10 10 10 10 9 8 7 7 6 6 6 6 6 6 6 6 7 7 7 7 7 7 7 7 7 7 7 7 6 5 4 3 3 3 3 3 3 3 2 2 2 2 2 2 2 3 3 3 3 3 4 4 4 4 4 4 4 4 5 5 5 5 5 5 5 5 5 5 5 5 5 5 4
9 10 10 7 6 4 4 4 3 4 5 5 3 2 3 3 3 3 3 2 1 1 1 3 4 6 7 8 9 10 10 10 10 10 9 8 7 6 6 6 6 6 6 7 7 7 7 7 7 7 7 7 7 7 7 7 7 6 6 5 4 3 3 3 3 4 3 3 2 2 2 2 2 2 3 3 3 3 4 4 4 4 4 4 4 4 5 5 5 5 5 5 5 5 4 4 5 4 4 4 4 4 4
7 10 11 8 6 5 4 3 3 4 4 2 1 2 3 3 3 3 3 2 1 0 1 3 5 6 7 8 9 10 9 10 10 9 8 8 7 6 6 6 6 6 7 7 7 7 7 7 7 7 7 7 7 7 7 7 6 6 5 5 4 4 3 3 4 3 3 2 2 2 2 2 2 3 3 3 4 4 4 4 4 5 5 5 5 5 5 5 5 5 5 4 4 4 4 4 4 4 4 4 4 4 4
8 10 11 9 7 5 3 3 4 4 4 2 2 2 3 4 4 3 3 2 1 0 1 3 5 6 7 8 9 10 9 9 10 9 7 7 6 6 6 6 6 6 7 7 7 7 7 7 7 7 7 7 6 7 7 6 6 5 4 4 4 4 4 4 4 3 2 2 2 2 2 2 3 3 4 4 4 4 4 4 5 5 5 5 5 5 5 5 5 5 4 4 4 4 4 4 4 4 4 4 4 4 4
7 10 11 10 8 6 4 3 3 4 4 3 3 3 4 4 4 4 4 3 1 1 1 3 4 5 6 8 9 10 9 9 9 9 8 6 6 6 6 6 6 6 7 6 6 6 6 7 7 7 7 6 6 7 7 6 5 5 4 4 4 4 4 4 4 3 2 2 2 2 2 3 3 3 4 4 4 4 4 5 5 5 5 5 5 5 5 5 5 5 4 4 4 4 4 4 4 4 4 4 4 4 4
6 9 10 10 9 6 4 3 3 4 4 3 3 3 4 4 4 4 4 3 2 1 0 2 3 4 6 7 9 10 10 10 9 9 8 7 6 5 6 6 6 6 6 6 6 6 6 6 7 7 7 6 6 6 7 6 5 4 4 4 4 4 4 4 4 3 3 3 3 3 3 3 3 4 4 4 4 5 5 5 6 6 5 5 5 5 5 5 5 5 5 5 4 4 4 4 4 4 4 4 4 4 4
4 8 10 10 9 7 5 4 4 3 4 3 3 3 4 4 4 4 4 3 2 1 0 2 3 4 6 7 9 9 10 10 10 9 8 7 6 6 6 6 6 6 6 6 6 6 6 6 6 6 6 6 6 6 7 6 5 4 4 4 4 4 4 4 4 3 3 3 3 3 3 3 4 4 5 5 5 5 6 6 6 6 5 5 5 5 5 5 5 5 5 5 5 5 5 5 5 5 5 5 4 4 4
3 6 10 10 9 8 7 5 4 3 3 3 2 2 3 3 3 4 4 3 2 1 1 2 3 4 5 8 9 9 10 10 10 10 8 7 7 7 6 6 6 6 6 6 6 6 6 6 6 6 6 6 6 6 6 5 4 4 4 4 4 4 4 4 3 3 3 3 3 3 3 4 4 5 5 5 6 6 6 6 6 5 5 5 5 5 5 5 5 5 5 5 5 5 5 5 5 5 5 5 5 5 5
3 6 11 10 9 9 8 7 5 3 3 3 3 2 3 4 4 3 4 4 3 2 1 2 3 4 6 7 9 10 10 10 10 10 9 8 8 7 7 7 7 6 6 6 6 6 6 6 6 6 5 5 6 6 6 5 5 4 4 4 4 4 4 4 3 3 4 3 3 3 4 4 5 5 6 6 6 6 7 6 6 5 5 5 5 5 5 5 6 6 6 6 6 6 6 5 5 5 5 5 5 5 5
2 5 11 10 10 9 8 7 6 5 3 3 3 3 3 4 4 3 4 4 3 2 2 2 3 4 6 7 9 10 10 9 9 9 9 9 8 8 7 7 6 6 6 6 6 6 6 6 7 6 6 5 5 6 6 6 5 5 4 4 4 3 3 3 3 3 4 4 4 4 4 5 6 6 6 6 6 6 6 6 6 5 5 5 5 5 6 6 6 6 6 6 6 6 6 6 6 5 5 5 5 5 5
2 5 10 10 10 9 8 7 7 6 5 4 3 3 3 3 4 4 4 3 3 2 2 2 3 4 6 8 9 10 9 8 9 9 9 9 9 8 7 7 6 6 6 6 6 6 6 6 7 7 6 5 5 6 6 6 6 5 5 4 3 3 3 3 3 4 4 4 4 4 5 6 6 6 6 6 6 6 6 5 5 5 5 5 5 5 6 6 6 6 6 7 7 7 7 6 6 6 6 6 6 5 5
4 5 7 8 8 9 10 7 6 6 7 5 4 3 3 3 3 4 4 4 3 3 2 2 3 4 6 8 10 10 9 8 8 9 9 9 9 8 7 6 6 6 6 6 6 6 6 7 7 7 6 5 5 6 6 6 6 5 5 4 4 4 3 3 3 4 4 5 5 6 6 6 6 6 6 5 5 5 5 5 5 5 5 5 5 5 6 6 6 6 6 7 7 7 7 7 7 7 7 6 6 6 6
6 6 6 6 7 8 11 9 6 4 6 6 5 4 3 3 4 4 4 4 3 3 3 3 3 4 6 8 9 9 9 9 8 8 8 9 9 8 7 6 6 6 6 6 6 7 7 7 7 7 6 5 5 6 6 6 6 5 4 4 4 4 4 4 4 4 4 5 6 7 7 6 6 5 5 5 5 5 5 5 5 5 5 5 5 5 6 6 6 6 6 7 7 7 7 7 7 7 7 7 7 7 7
6 6 5 5 6 8 11 10 4 -1 -2 4 6 5 4 3 3 4 5 4 4 3 3 3 3 4 5 7 8 8 9 9 8 7 7 9 9 8 7 6 6 6 5 6 6 7 6 7 7 6 6 5 5 5 6 6 5 5 4 4 4 4 4 4 4 5 5 6 7 7 6 5 4 4 4 5 5 5 4 5 5 5 5 5 5 5 6 6 6 6 6 6 6 7 7 7 7 7 7 7 7 7 7
7 7 5 4 4 6 10 11 6 -2 -10 -3 3 7 6 3 3 4 5 4 4 3 3 3 3 3 4 5 6 8 9 9 8 7 7 8 9 8 7 6 6 5 5 6 6 6 6 6 6 6 5 5 5 5 5 5 5 5 4 4 4 4 4 5 5 6 7 7 7 6 5 4 4 4 5 5 5 4 4 5 5 5 5 5 5 5 5 5 5 6 5 6 6 6 7 7 7 7 7 7 7 7 7
8 8 7 5 4 5 8 11 11 5 -7 -7 -1 6 8 5 3 4 5 4 4 3 2 2 2 2 2 4 6 7 9 9 8 8 8 8 8 8 8 7 6 5 5 6 6 6 6 6 6 6 5 5 5 4 5 5 4 4 4 4 4 4 5 5 6 7 7 6 5 4 4 4 4 5 5 4 4 4 4 5 5 5 5 5 5 5 5 5 5 5 5 5 5 6 6 6 6 6 6 6 6 6 6
8 9 8 6 4 4 7 11 13 11 1 -4 -1 6 9 5 4 4 4 4 4 3 2 2 2 2 2 3 5 7 8 8 8 8 8 8 8 8 9 7 6 6 5 6 6 6 5 6 6 6 5 5 4 4 4 4 4 4 4 4 4 5 5 6 6 7 6 5 4 3 3 4 4 4 4 4 4 4 4 4 5 4 4 4 4 4 4 4 5 5 5 5 5 5 6 6 6 6 6 6 6 5 5
9 10 9 7 5 5 7 10 11 9 3 0 3 7 9 6 4 3 4 4 4 3 2 2 2 2 2 3 5 7 8 9 9 8 7 7 8 8 9 8 7 6 6 6 5 5 5 6 6 6 5 4 4 4 4 4 4 4 3 4 4 5 6 6 6 6 5 4 3 3 3 3 3 3 4 4 4 4 4 4 4 4 4 4 4 4 4 4 4 4 4 5 5 5 5 5 5 5 5 5 5 5 4
10 10 10 8 6 5 7 8 7 4 2 4 7 9 10 6 4 3 4 4 4 3 3 2 2 2 2 3 4 6 9 10 10 9 7 6 7 8 9 9 8 7 6 6 5 5 5 5 6 5 5 5 4 4 3 4 4 4 4 4 4 5 6 6 6 5 4 4 3 3 3 3 3 3 3 4 4 4 4 4 4 4 3 3 3 3 3 3 4 4 4 4 4 5 5 5 5 5 5 4 4 4 4
9 9 11 10 8 7 6 7 4 1 0 6 9 10 10 7 4 3 3 4 4 4 3 2 1 1 2 2 3 5 8 10 10 10 8 7 7 8 8 8 8 7 6 6 5 5 5 5 5 5 5 5 4 4 3 4 4 4 4 5 5 6 6 6 5 4 3 3 2 2 2 3 3 3 3 3 3 4 4 4 3 3 2 2 2 2 2 3 3 3 4 4 4 4 4 4 3 3 3 3 3 3 3
6 8 9 11 10 8 6 6 5 4 3 7 11 12 11 8 5 3 3 3 3 3 3 3 2 1 2 2 3 4 6 9 11 10 8 8 7 7 7 8 8 7 6 6 5 5 5 5 5 5 5 5 4 4 4 4 4 4 4 5 6 6 6 5 4 3 2 2 2 2 2 2 2 3 3 3 3 3 3 3 3 2 2 1 1 2 2 2 3 3 3 3 3 3 3 2 1 1 1 1 1 1 1
4 6 8 10 10 10 8 6 5 6 8 12 14 14 11 9 6 4 3 3 3 3 3 3 3 2 2 2 3 3 4 8 11 12 9 8 7 6 6 7 7 7 6 6 5 5 5 5 5 5 5 5 4 4 4 4 4 5 5 6 6 6 5 5 4 2 2 1 1 1 2 2 2 2 2 3 3 3 3 3 2 2 1 1 1 1 2 2 3 3 3 2 2 2 1 0 -0 -1 -1 -1 -1 -0 0
4 6 8 9 10 10 9 7 6 6 10 15 16 14 12 10 8 5 4 3 3 2 3 3 3 3 2 2 3 3 4 6 10 12 11 8 7 6 6 6 6 6 6 6 5 5 4 4 4 4 4 4 4 4 5 5 5 5 6 6 6 5 5 4 3 2 1 1 1 1 1 2 2 2 2 2 3 3 3 2 1 1 1 1 1 1 2 2 2 2 2 2 1 0 -0 -1 -2 -2 -3 -3 -2 -2 -0
6 7 8 9 10 10 11 9 6 5 7 11 12 11 11 11 10 8 5 4 3 2 2 3 3 3 2 3 3 3 4 6 9 12 13 10 7 6 5 5 5 5 5 5 5 5 4 4 4 4 4 4 4 4 5 5 5 5 5 5 5 5 4 3 2 1 1 1 1 1 1 1 2 2 2 2 2 2 2 1 1 0 0 1 1 2 2 2 2 2 2 1 -0 -1 -1 -2 -2 -3 -3 -3 -3 -2 -0
7 7 8 9 10 11 12 11 8 4 3 5 7 8 8 9 9 10 8 6 4 3 2 2 3 3 3 3 4 4 5 7 9 11 12 11 9 7 5 5 5 5 5 5 5 5 4 4 4 4 3 3 4 4 4 5 5 5 5 5 5 4 3 2 1 1 0 1 1 1 1 1 2 2 2 2 2 2 2 1 1 0 0 1 1 2 2 2 2 2 1 0 -1 -1 -1 -2 -2 -2 -3 -2 -2 -1 0
8 7 8 8 9 11 13 12 9 6 3 3 7 11 12 5 6 9 10 8 6 4 2 2 2 3 4 4 5 5 6 7 8 9 11 11 9 8 6 5 5 5 5 5 5 5 4 4 4 3 4 3 4 4 4 4 5 5 5 5 4 4 3 2 1 1 1 1 1 1 1 2 2 2 2 2 2 2 2 1 1 0 0 1 1 2 2 2 2 2 1 0 -1 -1 -2 -2 -2 -2 -2 -1 -1 0 2
10 9 8 8 9 11 13 13 11 7 4 5 12 19 18 2 0 6 11 9 7 5 3 2 2 2 3 4 5 5 5 5 5 7 9 10 10 8 7 6 6 5 5 5 5 5 4 4 4 4 4 4 4 4 4 4 5 5 5 5 4 3 2 2 1 1 1 1 1 2 2 2 2 2 2 3 3 3 2 1 1 1 1 1 2 2 2 2 2 1 0 -0 -1 -2 -3 -3 -2 -2 -1 -0 1 2 3
11 10 8 8 9 11 13 14 12 8 5 8 14 16 9 -5 -3 5 10 10 8 6 4 3 2 2 2 3 4 5 4 4 4 5 6 8 9 9 7 6 6 6 6 5 5 5 5 4 4 4 4 4 4 4 4 5 5 5 5 5 4 3 2 1 1 1 1 1 2 2 2 2 2 2 3 3 3 3 2 2 1 1 1 2 2 2 3 3 2 1 0 -1 -2 -3 -4 -3 -2 -1 0 2 2 3 4
9 9 9 8 8 10 13 15 12 8 5 10 12 9 -1 -7 -4 4 10 10 8 6 4 3 3 2 2 2 3 4 4 4 4 5 7 5 7 9 9 8 7 6 6 6 5 5 5 5 4 5 5 5 5 5 5 5 5 5 5 5 4 3 2 1 1 1 2 2 2 3 3 3 3 3 3 3 3 3 2 2 1 1 2 2 2 3 3 3 2 1 -0 -2 -3 -4 -4 -3 -1 1 3 4 4 4 4
11 9 8 7 7 9 12 15 13 9 5 9 11 10 6 3 2 3 7 9 9 8 5 3 3 2 2 2 3 3 4 4 3 4 6 6 5 3 5 9 9 8 6 5 5 5 5 5 5 5 5 5 5 5 5 5 6 6 6 5 4 3 2 1 1 2 2 3 3 3 4 4 4 4 3 3 3 2 2 2 2 2 2 2 2 3 3 3 3 2 0 -1 -2 -3 -2 -1 1 3 5 5 5 5 4
14 13 9 5 5 7 11 14 13 9 4 6 8 11 13 15 12 8 6 9 10 9 6 3 2 2 3 3 3 3 3 4 4 3 2 5 6 4 1 3 6 8 7 7 6 5 4 4 4 4 5 6 5 5 5 6 6 6 6 6 5 4 3 2 2 3 3 3 3 4 4 4 4 4 4 3 3 2 2 2 2 2 2 2 3 3 3 3 3 2 1 -1 -1 -1 0 2 4 5 6 6 6 5 4
14 16 14 7 4 5 9 14 14 11 4 3 5 8 13 19 18 13 8 10 11 11 9 5 2 1 2 3 3 3 4 3 4 5 3 2 5 8 6 3 4 5 6 6 6 6 6 5 4 4 4 5 6 6 6 6 6 6 7 7 7 6 5 5 4 4 4 4 4 4 4 5 5 5 4 4 3 3 2 2 2 3 3 3 3 3 4 4 4 3 1 0 0 1 2 4 5 6 6 6 5 4 4
9 17 20 14 8 4 5 11 14 13 6 2 3 6 11 16 17 14 9 11 12 12 11 7 3 1 0 2 3 3 4 4 4 5 6 4 3 5 8 5 4 3 3 4 4 5 7 6 5 5 5 5 5 6 6 6 6 6 7 8 8 8 7 7 6 6 6 5 5 5 5 5 5 5 4 4 3 3 3 3 3 4 4 4 5 5 5 5 5 4 3 2 2 2 3 4 5 6 5 5 4 4 4
-3 12 22 20 13 6 2 6 11 14 11 5 3 5 8 12 13 12 8 9 11 12 12 9 6 2 -1 0 1 2 2 4 4 4 5 4 2 -0 -1 1 1 1 2 3 3 3 4 4 4 5 5 5 5 6 6 5 6 6 7 7 8 9 8 8 8 7 7 7 6 6 5 5 5 4 4 4 3 3 3 3 4 4 5 5 6 6 7 7 6 5 4 4 4 4 4 5 5 5 5 4 4 4 5
-12 -2 15 19 17 12 4 2 6 11 15 10 6 3 5 8 9 9 7 9 11 11 12 10 7 4 0 -1 -0 1 1 3 4 4 3 3 3 1 -3 -1 1 3 3 3 3 3 3 4 5 5 5 5 6 6 6 5 5 5 6 7 8 8 8 8 8 8 7 7 7 6 6 5 4 4 4 3 3 3 3 4 4 4 5 5 6 6 7 7 6 5 4 4 4 4 5 5 5 5 4 4 4 4 4
-10 -11 3 15 18 15 10 4 3 5 12 14 10 5 3 6 8 8 6 10 12 13 11 11 8 4 2 -1 -1 0 2 3 4 4 3 2 2 2 1 -0 -1 -0 0 1 3 4 3 4 5 6 4 4 4 5 5 5 4 4 5 6 6 6 6 6 5 5 5 6 6 6 6 5 5 4 4 3 3 3 3 3 3 3 4 4 5 6 6 6 5 4 4 4 4 4 5 5 5 5 5 4 4 3 2
-1 -9 -6 10 15 13 10 5 1 -0 4 12 13 10 3 6 8 8 6 6 10 14 11 10 8 5 2 1 0 -0 0 2 3 4 5 2 1 1 2 1 -1 -3 -2 -1 1 3 3 3 4 5 5 4 4 4 4 4 4 3 4 4 4 5 5 4 3 3 2 3 4 5 5 5 5 4 4 3 3 2 2 2 1 2 2 3 4 4 4 4 4 3 4 4 4 4 5 5 5 5 5 4 3 2 -1
8 -3 -10 7 16 18 11 5 -0 -3 -2 7 13 15 9 5 7 9 9 5 9 15 15 11 9 8 5 3 2 1 -0 1 2 3 4 3 1 0 1 1 1 -0 -3 -1 0 2 3 2 1 3 6 4 3 3 3 3 3 3 3 2 3 3 4 3 2 1 1 1 2 4 4 5 5 5 5 4 3 2 1 -0 -0 0 1 3 3 3 2 2 3 3 3 4 4 5 5 5 5 5 5 4 2 -0 -3
15 2 -11 0 14 24 21 12 3 -3 -4 3 11 16 13 8 8 10 10 6 10 17 22 15 11 10 9 5 2 1 0 1 1 2 2 2 2 1 0 1 2 2 -0 -2 -1 1 2 1 1 1 3 4 4 2 1 0 1 2 2 2 2 2 3 1 -0 -1 -0 1 2 3 4 5 5 5 5 4 3 1 0 -0 -0 1 2 2 3 2 2 2 2 3 3 4 4 5 5 6 6 5 4 3 0 -2 -4
20 4 -13 -7 7 22 30 22 12 3 -2 3 9 14 14 12 10 8 7 5 11 21 32 22 15 11 11 6 2 0 0 -0 1 2 2 2 1 0 0 1 1 2 1 -3 -3 -1 2 2 1 1 0 2 3 3 1 -1 -1 -1 -0 1 2 3 3 0 -2 -2 -1 1 2 3 4 5 5 6 6 5 3 2 1 0 1 2 3 3 3 3 3 3 3 3 3 3 4 5 6 6 5 5 4 2 -1 -3 -5
25 6 -14 -10 0 13 26 26 20 12 6 7 9 11 13 13 11 8 4 3 11 22 32 21 15 13 13 7 2 -0 -0 -0 0 1 2 2 2 1 0 1 2 2 1 -3 -3 -1 3 2 1 1 1 1 2 2 3 3 1 -1 -3 -0 2 3 3 -0 -2 -2 -1 0 2 3 4 5 6 6 6 5 4 3 1 1 2 2 3 3 4 4 4 4 3 3 3 3 4 5 6 6 5 4 3 1 -1 -3 -4
Height
3165 3166 3166 3167 3168 3168 3169 3170 3170 3170 3171 3171 3172 3172 3172 3173 3173 3173 3174 3174 3174 3174 3173 3173 3173 3173 3173 3172 3172 3172 3172 3171 3171 3171 3171 3171 3171 3172 3172 3172 3173 3173 3173 3174 3174 3175 3175 3175 3176 3176 3177 3177 3177 3178 3178 3178 3178 3179 3179 3179 3179 3180 3180 3180 3180 3180 3180 3181 3181 3181 3181 3181 3181 3181 3182 3182 3182 3182 3181 3181 3181 3181 3181 3180 3180 3180 3180 3180 3179 3179 3179 3178 3178 3178 3177 3177 3177 3176 3176 3175 3175 3175 3174
3165 3165 3165 3166 3167 3168 3168 3169 3170 3170 3170 3171 3171 3172 3172 3172 3173 3173 3173 3173 3173 3173 3173 3173 3173 3172 3172 3172 3172 3172 3171 3171 3171 3171 3171 3171 3171 3172 3172 3172 3173 3173 3173 3174 3174 3175 3175 3176 3176 3176 3177 3177 3177 3178 3178 3178 3178 3178 3179 3179 3179 3179 3180 3180 3180 3180 3180 3180 3181 3181 3181 3181 3181 3181 3182 3182 3182 3181 3181 3181 3181 3181 3181 3180 3180 3180 3180 3180 3179 3179 3179 3178 3178 3178 3177 3177 3177 3176 3176 3175 3175 3175 3174
3164 3165 3165 3166 3166 3167 3168 3168 3169 3170 3170 3170 3171 3171 3171 3172 3172 3173 3173 3173 3173 3173 3173 3173 3172 3172 3172 3172 3171 3171 3171 3171 3171 3171 3171 3171 3172 3172 3172 3173 3173 3173 3174 3174 3174 3175 3175 3176 3176 3176 3177 3177 3177 3178 3178 3178 3178 3178 3179 3179 3179 3179 3180 3180 3180 3180 3180 3180 3181 3181 3181 3181 3181 3181 3181 3181 3181 3181 3181 3181 3181 3181 3180 3180 3180 3180 3180 3179 3179 3179 3179 3178 3178 3178 3177 3177 3177 3176 3176 3176 3175 3175 3175
3164 3164 3165 3165 3166 3167 3167 3168 3169 3169 3170 3170 3170 3171 3171 3172 3172 3172 3173 3173 3173 3173 3173 3172 3172 3172 3171 3171 3171 3171 3171 3171 3171 3171 3171 3171 3172 3172 3172 3173 3173 3173 3174 3174 3175 3175 3175 3176 3176 3176 3177 3177 3177 3178 3178 3178 3178 3179 3179 3179 3179 3179 3180 3180 3180 3180 3180 3180 3181 3181 3181 3181 3181 3181 3181 3181 3181 3180 3181 3181 3181 3181 3180 3180 3180 3180 3180 3179 3179 3179 3179 3178 3178 3178 3177 3177 3177 3176 3176 3176 3175 3175 3175
3164 3163 3164 3165 3166 3166 3167 3167 3168 3169 3169 3170 3170 3170 3171 3171 3172 3172 3172 3172 3172 3172 3172 3172 3172 3171 3171 3171 3171 3171 3171 3171 3171 3171 3171 3171 3172 3172 3172 3173 3173 3173 3174 3174 3175 3175 3175 3176 3176 3177 3177 3177 3177 3178 3178 3178 3178 3179 3179 3179 3179 3179 3180 3180 3180 3180 3180 3180 3181 3181 3181 3181 3181 3181 3181 3181 3181 3181 3181 3181 3181 3181 3180 3180 3180 3180 3180 3179 3179 3179 3179 3178 3178 3178 3178 3177 3177 3177 3176 3176 3176 3175 3175
3163 3163 3164 3165 3165 3166 3166 3167 3168 3168 3169 3169 3170 3170 3170 3171 3171 3171 3172 3172 3172 3172 3172 3172 3171 3171 3171 3171 3171 3170 3170 3171 3171 3171 3171 3171 3172 3172 3172 3173 3173 3174 3174 3174 3175 3175 3175 3176 3176 3177 3177 3177 3177 3178 3178 3178 3178 3178 3179 3179 3179 3179 3180 3180 3180 3180 3180 3180 3181 3181 3181 3181 3181 3181 3181 3181 3181 3181 3181 3181 3181 3181 3180 3180 3180 3180 3180 3179 3179 3179 3179 3178 3178 3178 3178 3177 3177 3177 3176 3176 3176 3175 3175
3163 3162 3163 3164 3165 3165 3166 3166 3167 3168 3168 3169 3169 3170 3170 3170 3171 3171 3171 3172 3172 3172 3172 3171 3171 3171 3171 3170 3170 3170 3170 3171 3171 3171 3171 3171 3172 3172 3172 3173 3173 3174 3174 3174 3175 3175 3175 3176 3176 3177 3177 3177 3177 3177 3178 3178 3178 3178 3179 3179 3179 3179 3180 3180 3180 3180 3180 3180 3181 3181 3181 3181 3181 3181 3181 3181 3181 3181 3181 3181 3181 3180 3180 3180 3180 3180 3180 3179 3179 3179 3179 3178 3178 3178 3178 3177 3177 3177 3176 3176 3176 3175 3175
3162 3162 3162 3163 3164 3164 3165 3166 3166 3167 3168 3168 3169 3169 3170 3170 3170 3171 3171 3171 3171 3171 3171 3171 3171 3171 3170 3170 3170 3170 3170 3170 3171 3171 3171 3171 3172 3172 3172 3173 3173 3174 3174 3174 3175 3175 3175 3176 3176 3177 3177 3177 3177 3177 3178 3178 3178 3178 3178 3179 3179 3179 3180 3180 3180 3180 3180 3180 3181 3181 3181 3181 3181 3181 3181 3181 3181 3181 3181 3180 3180 3180 3180 3180 3180 3180 3180 3179 3179 3179 3179 3178 3178 3178 3177 3177 3177 3177 3176 3176 3176 3175 3175
3162 3162 3162 3162 3163 3164 3165 3165 3166 3167 3167 3168 3168 3169 3169 3170 3170 3170 3170 3171 3171 3171 3171 3171 3171 3170 3170 3170 3170 3170 3170 3170 3171 3171 3171 3171 3172 3172 3172 3173 3173 3174 3174 3174 3175 3175 3175 3176 3176 3176 3177 3177 3177 3177 3177 3178 3178 3178 3178 3179 3179 3179 3180 3180 3180 3180 3181 3181 3181 3181 3181 3181 3181 3181 3181 3181 3180 3180 3180 3180 3180 3180 3180 3180 3180 3180 3179 3179 3179 3179 3178 3178 3178 3178 3177 3177 3177 3176 3176 3176 3176 3175 3175
3162 3162 3161 3162 3163 3163 3164 3165 3165 3166 3166 3167 3168 3168 3169 3169 3170 3170 3170 3170 3170 3171 3171 3170 3170 3170 3170 3170 3170 3170 3170 3170 3171 3171 3171 3171 3171 3172 3172 3172 3173 3173 3174 3174 3175 3175 3175 3176 3176 3176 3177 3177 3177 3177 3177 3178 3178 3178 3178 3178 3179 3179 3179 3180 3180 3180 3181 3181 3181 3181 3181 3181 3181 3181 3180 3180 3180 3180 3180 3180 3180 3180 3180 3180 3180 3179 3179 3179 3179 3178 3178 3178 3178 3177 3177 3177 3177 3176 3176 3176 3175 3175 3175
3161 3161 3161 3161 3162 3163 3164 3164 3165 3165 3166 3166 3167 3168 3168 3169 3169 3170 3170 3170 3170 3170 3170 3170 3170 3170 3170 3169 3169 3170 3170 3170 3170 3171 3171 3171 3171 3172 3172 3172 3173 3173 3174 3174 3175 3175 3175 3176 3176 3176 3177 3177 3177 3177 3177 3177 3178 3178 3178 3178 3179 3179 3179 3180 3180 3180 3180 3180 3180 3180 3181 3180 3180 3180 3180 3180 3180 3180 3180 3180 3180 3180 3180 3180 3179 3179 3179 3179 3178 3178 3178 3178 3178 3177 3177 3177 3176 3176 3176 3176 3175 3175 3175
3160 3161 3161 3161 3161 3162 3163 3163 3164 3165 3165 3166 3166 3167 3167 3168 3169 3169 3169 3170 3170 3170 3170 3170 3170 3169 3169 3169 3169 3169 3170 3170 3170 3170 3171 3171 3171 3171 3172 3172 3173 3173 3174 3174 3174 3175 3175 3175 3176 3176 3176 3177 3177 3177 3177 3177 3177 3178 3178 3178 3178 3179 3179 3179 3179 3180 3180 3180 3180 3180 3180 3180 3180 3180 3180 3180 3180 3180 3180 3180 3180 3180 3180 3180 3179 3179 3179 3179 3178 3178 3178 3178 3178 3177 3177 3177 3177 3176 3176 3176 3175 3175 3175
3159 3160 3160 3160 3160 3161 3162 3163 3163 3164 3165 3165 3166 3166 3167 3167 3168 3168 3169 3169 3169 3170 3170 3169 3169 3169 3169 3169 3169 3169 3169 3170 3170 3170 3170 3171 3171 3171 3172 3172 3172 3173 3173 3174 3174 3175 3175 3175 3176 3176 3176 3176 3177 3177 3177 3177 3177 3177 3178 3178 3178 3178 3179 3179 3179 3180 3180 3180 3180 3180 3180 3180 3180 3180 3180 3180 3180 3180 3180 3180 3180 3180 3180 3179 3179 3179 3179 3179 3178 3178 3178 3178 3178 3177 3177 3177 3177 3176 3176 3176 3176 3175 3175
3157 3158 3159 3159 3160 3160 3161 3162 3163 3163 3164 3165 3165 3166 3166 3167 3168 3168 3168 3169 3169 3169 3169 3169 3169 3168 3168 3168 3168 3169 3169 3169 3170 3170 3170 3170 3171 3171 3171 3172 3172 3173 3173 3174 3174 3175 3175 3175 3175 3176 3176 3176 3176 3177 3177 3177 3177 3177 3177 3178 3178 3178 3178 3179 3179 3179 3179 3180 3180 3180 3180 3180 3180 3180 3180 3180 3180 3180 3180 3180 3180 3180 3180 3179 3179 3179 3179 3179 3178 3178 3178 3178 3178 3177 3177 3177 3177 3176 3176 3176 3176 3175 3175
3156 3157 3158 3159 3159 3160 3160 3161 3162 3163 3163 3164 3165 3165 3165 3166 3167 3167 3168 3168 3168 3169 3168 3168 3168 3168 3168 3168 3168 3168 3168 3169 3169 3170 3170 3170 3170 3171 3171 3172 3172 3172 3173 3173 3174 3174 3175 3175 3175 3175 3176 3176 3176 3176 3176 3177 3177 3177 3177 3178 3178 3178 3178 3178 3179 3179 3179 3179 3180 3180 3180 3180 3180 3180 3180 3180 3180 3180 3180 3180 3180 3180 3180 3179 3179 3179 3179 3179 3179 3178 3178 3178 3178 3177 3177 3177 3177 3176 3176 3176 3176 3175 3175
3155 3156 3157 3158 3158 3159 3160 3160 3161 3162 3162 3163 3164 3165 3165 3165 3166 3167 3167 3167 3168 3168 3168 3168 3168 3168 3167 3167 3167 3168 3168 3168 3169 3169 3170 3170 3170 3170 3171 3171 3172 3172 3173 3173 3174 3174 3175 3175 3175 3175 3175 3176 3176 3176 3176 3176 3177 3177 3177 3177 3178 3178 3178 3178 3178 3179 3179 3179 3179 3180 3180 3180 3180 3180 3180 3180 3180 3180 3180 3180 3180 3180 3180 3179 3179 3179 3179 3179 3179 3178 3178 3178 3178 3177 3177 3177 3177 3176 3176 3176 3176 3175 3175
3155 3155 3156 3157 3157 3158 3159 3160 3160 3161 3161 3162 3163 3164 3164 3165 3165 3166 3166 3167 3167 3167 3167 3167 3167 3167 3167 3167 3167 3167 3168 3168 3169 3169 3169 3170 3170 3170 3170 3171 3171 3172 3172 3173 3173 3174 3174 3175 3175 3175 3175 3175 3175 3175 3176 3176 3176 3177 3177 3177 3177 3178 3178 3178 3178 3179 3179 3179 3179 3180 3180 3180 3180 3180 3180 3180 3180 3180 3180 3180 3180 3180 3180 3179 3179 3179 3179 3179 3179 3179 3178 3178 3178 3177 3177 3177 3177 3176 3176 3176 3175 3175 3175
3154 3155 3155 3156 3156 3157 3158 3159 3159 3160 3160 3161 3162 3163 3164 3164 3165 3165 3165 3166 3166 3167 3167 3167 3167 3167 3166 3166 3166 3167 3167 3168 3168 3169 3169 3169 3169 3170 3170 3171 3171 3172 3172 3172 3173 3173 3174 3174 3174 3175 3175 3175 3175 3175 3175 3176 3176 3176 3177 3177 3177 3178 3178 3178 3178 3179 3179 3179 3179 3179 3180 3180 3180 3180 3180 3180 3180 3180 3180 3180 3180 3180 3180 3179 3179 3179 3179 3179 3179 3178 3178 3178 3178 3177 3177 3177 3177 3176 3176 3176 3175 3175 3175
3153 3154 3154 3155 3155 3156 3157 3157 3158 3159 3160 3160 3161 3162 3163 3163 3164 3164 3165 3165 3166 3166 3166 3166 3166 3166 3166 3166 3166 3166 3167 3167 3168 3168 3168 3169 3169 3169 3170 3170 3171 3171 3172 3172 3173 3173 3173 3174 3174 3174 3175 3175 3175 3175 3175 3175 3176 3176 3176 3177 3177 3178 3178 3178 3178 3178 3179 3179 3179 3179 3180 3180 3180 3180 3180 3180 3180 3180 3180 3180 3180 3180 3179 3179 3179 3179 3179 3179 3179 3178 3178 3178 3178 3177 3177 3177 3177 3176 3176 3176 3175 3175 3175
3151 3152 3153 3154 3154 3155 3155 3156 3157 3158 3159 3159 3160 3161 3162 3162 3163 3163 3164 3164 3165 3165 3165 3166 3166 3166 3165 3165 3166 3166 3166 3167 3167 3168 3168 3168 3169 3169 3169 3170 3170 3171 3171 3172 3172 3173 3173 3173 3174 3174 3174 3174 3175 3175 3175 3175 3175 3176 3176 3177 3177 3178 3178 3178 3178 3178 3178 3179 3179 3179 3179 3179 3180 3180 3180 3180 3180 3180 3180 3180 3180 3180 3179 3179 3179 3179 3179 3179 3179 3178 3178 3178 3178 3177 3177 3177 3177 3176 3176 3176 3175 3175 3175
3150 3151 3152 3152 3153 3153 3154 3155 3155 3156 3158 3158 3159 3160 3160 3161 3162 3162 3163 3164 3164 3165 3165 3165 3165 3165 3165 3165 3165 3165 3166 3166 3167 3167 3167 3168 3168 3168 3169 3169 3170 3170 3170 3171 3172 3172 3172 3173 3173 3173 3174 3174 3174 3175 3175 3175 3175 3175 3176 3176 3177 3177 3178 3178 3178 3178 3178 3179 3179 3179 3179 3179 3179 3179 3180 3180 3180 3180 3180 3180 3180 3179 3179 3179 3179 3179 3179 3179 3178 3178 3178 3178 3178 3177 3177 3177 3176 3176 3176 3176 3175 3175 3175
3149 3150 3150 3151 3151 3152 3153 3153 3154 3155 3157 3158 3158 3158 3159 3160 3160 3161 3162 3163 3163 3164 3165 3165 3165 3165 3165 3165 3165 3165 3165 3165 3166 3166 3167 3167 3167 3168 3168 3169 3169 3170 3170 3170 3171 3171 3172 3172 3173 3173 3173 3174 3174 3174 3174 3175 3175 3175 3176 3176 3177 3177 3177 3177 3178 3178 3178 3178 3179 3179 3179 3179 3179 3179 3179 3179 3180 3180 3179 3179 3179 3179 3179 3179 3179 3179 3179 3178 3178 3178 3178 3178 3177 3177 3177 3177 3176 3176 3176 3176 3175 3175 3175
3148 3148 3149 3150 3150 3151 3151 3152 3153 3154 3155 3157 3157 3157 3157 3158 3159 3160 3161 3162 3162 3163 3164 3164 3164 3164 3164 3164 3164 3164 3165 3165 3165 3166 3166 3166 3167 3167 3168 3168 3169 3169 3170 3170 3170 3171 3171 3172 3172 3172 3173 3173 3173 3174 3174 3174 3175 3175 3175 3176 3176 3177 3177 3177 3178 3178 3178 3178 3178 3179 3179 3179 3179 3179 3179 3179 3179 3179 3179 3179 3179 3179 3179 3179 3179 3179 3178 3178 3178 3178 3178 3178 3177 3177 3177 3177 3176 3176 3176 3175 3175 3175 3175
3147 3147 3148 3148 3149 3150 3150 3150 3151 3152 3153 3154 3155 3155 3156 3157 3158 3159 3160 3161 3162 3162 3163 3163 3163 3163 3163 3163 3163 3164 3164 3164 3165 3165 3165 3166 3166 3167 3167 3168 3168 3169 3169 3170 3170 3170 3171 3171 3172 3172 3172 3173 3173 3173 3174 3174 3174 3175 3175 3175 3176 3176 3177 3177 3177 3178 3178 3178 3178 3178 3179 3179 3179 3179 3179 3179 3179 3179 3179 3179 3179 3179 3179 3179 3178 3178 3178 3178 3178 3178 3178 3177 3177 3177 3177 3176 3176 3176 3176 3175 3175 3175 3175
3145 3146 3146 3147 3148 3148 3149 3150 3150 3151 3152 3152 3153 3154 3155 3156 3157 3158 3159 3160 3161 3162 3162 3163 3163 3162 3162 3163 3163 3163 3163 3164 3164 3164 3165 3165 3165 3166 3167 3167 3168 3168 3169 3169 3170 3170 3170 3171 3171 3171 3172 3172 3173 3173 3173 3174 3174 3174 3174 3175 3175 3176 3176 3177 3177 3177 3177 3178 3178 3178 3178 3178 3179 3179 3179 3179 3179 3179 3179 3179 3179 3178 3178 3178 3178 3178 3178 3178 3178 3178 3177 3177 3177 3177 3176 3176 3176 3176 3175 3175 3175 3175 3174
3144 3144 3145 3145 3146 3147 3148 3148 3149 3150 3150 3151 3151 3152 3154 3155 3156 3157 3158 3160 3160 3161 3161 3162 3162 3162 3162 3162 3162 3162 3162 3163 3163 3164 3164 3165 3165 3165 3166 3166 3167 3167 3168 3168 3169 3170 3170 3170 3171 3171 3171 3172 3172 3172 3173 3173 3173 3174 3174 3174 3175 3175 3176 3176 3177 3177 3177 3177 3177 3178 3178 3178 3178 3178 3178 3178 3178 3178 3178 3178 3178 3178 3178 3178 3178 3178 3178 3178 3177 3177 3177 3177 3177 3176 3176 3176 3176 3175 3175 3175 3175 3174 3174
3143 3142 3143 3144 3145 3146 3146 3147 3148 3149 3150 3150 3151 3152 3153 3154 3155 3156 3157 3158 3159 3160 3161 3161 3161 3161 3161 3161 3161 3162 3162 3162 3163 3163 3164 3164 3164 3165 3165 3166 3166 3167 3167 3168 3169 3169 3170 3170 3170 3170 3171 3171 3172 3172 3172 3173 3173 3173 3174 3174 3175 3175 3175 3176 3176 3177 3177 3177 3177 3177 3177 3177 3178 3178 3178 3178 3178 3178 3178 3178 3178 3178 3178 3177 3177 3177 3177 3177 3177 3177 3177 3177 3176 3176 3176 3176 3175 3175 3175 3175 3174 3174 3174
3142 3141 3141 3142 3143 3144 3145 3146 3147 3148 3148 3150 3151 3151 3151 3153 3154 3155 3156 3157 3158 3159 3160 3160 3160 3160 3160 3160 3161 3161 3161 3162 3162 3163 3163 3163 3164 3164 3165 3165 3166 3166 3167 3167 3168 3168 3169 3169 3170 3170 3170 3171 3171 3172 3172 3172 3172 3173 3173 3173 3174 3175 3175 3175 3176 3176 3176 3176 3176 3176 3177 3177 3177 3177 3177 3177 3178 3178 3178 3178 3178 3177 3177 3177 3177 3177 3177 3177 3177 3177 3177 3176 3176 3176 3175 3175 3175 3175 3175 3174 3174 3174 3173
3141 3140 3140 3141 3142 3143 3144 3145 3146 3146 3147 3148 3149 3150 3150 3151 3153 3154 3155 3156 3157 3158 3159 3159 3160 3160 3160 3160 3160 3160 3160 3161 3161 3162 3162 3163 3163 3164 3164 3165 3165 3165 3166 3167 3167 3168 3168 3169 3169 3170 3170 3170 3171 3171 3171 3172 3172 3172 3172 3173 3173 3174 3175 3175 3175 3176 3176 3176 3176 3176 3176 3176 3177 3177 3177 3177 3177 3177 3177 3177 3177 3177 3177 3177 3177 3177 3177 3177 3177 3176 3176 3176 3176 3175 3175 3175 3175 3174 3174 3174 3173 3173 3173
3139 3140 3139 3140 3140 3141 3143 3144 3144 3145 3146 3147 3147 3148 3149 3150 3152 3153 3154 3155 3156 3157 3158 3158 3159 3159 3159 3159 3159 3160 3160 3160 3161 3161 3162 3162 3163 3163 3164 3164 3165 3165 3165 3166 3166 3167 3168 3168 3168 3169 3169 3170 3170 3171 3171 3171 3172 3172 3172 3172 3173 3173 3174 3174 3175 3175 3175 3175 3175 3175 3175 3176 3176 3176 3176 3177 3177 3177 3177 3177 3177 3176 3176 3176 3176 3176 3176 3176 3176 3176 3176 3176 3175 3175 3175 3175 3174 3174 3174 3173 3173 3173 3172
3137 3138 3138 3139 3139 3140 3142 3142 3143 3144 3145 3145 3146 3147 3148 3149 3150 3151 3153 3154 3155 3156 3157 3157 3158 3158 3158 3158 3159 3159 3159 3160 3160 3160 3161 3162 3162 3162 3163 3163 3164 3164 3165 3165 3166 3166 3167 3167 3168 3168 3169 3169 3170 3170 3170 3171 3171 3171 3172 3172 3172 3173 3174 3175 3175 3175 3175 3175 3175 3175 3175 3175 3175 3176 3176 3176 3176 3176 3176 3176 3176 3176 3176 3176 3176 3176 3176 3176 3176 3176 3175 3175 3175 3175 3175 3174 3174 3173 3173 3173 3172 3172 3172
3135 3136 3137 3137 3138 3139 3140 3141 3141 3142 3143 3144 3145 3146 3147 3148 3149 3150 3151 3153 3154 3155 3156 3156 3157 3157 3158 3158 3158 3158 3158 3159 3159 3160 3160 3161 3161 3162 3162 3163 3163 3164 3164 3165 3165 3165 3166 3166 3167 3167 3168 3168 3169 3169 3170 3170 3171 3171 3171 3171 3172 3172 3173 3174 3174 3174 3174 3174 3174 3175 3175 3175 3175 3175 3175 3176 3176 3176 3176 3176 3176 3175 3175 3175 3175 3175 3175 3175 3175 3175 3175 3175 3175 3174 3174 3174 3173 3173 3173 3172 3172 3172 3171
3132 3133 3134 3135 3136 3137 3138 3140 3140 3140 3141 3143 3144 3145 3145 3146 3148 3149 3150 3151 3152 3153 3154 3155 3156 3156 3157 3157 3157 3157 3157 3158 3158 3159 3160 3160 3161 3161 3161 3162 3162 3163 3163 3164 3164 3165 3165 3166 3166 3167 3167 3168 3168 3169 3169 3170 3170 3170 3171 3171 3171 3172 3172 3172 3173 3173 3174 3174 3174 3174 3174 3174 3175 3175 3175 3175 3175 3175 3175 3175 3175 3175 3175 3175 3175 3175 3175 3175 3175 3175 3175 3175 3174 3174 3174 3173 3173 3173 3172 3172 3172 3171 3171
3130 3130 3131 3133 3134 3136 3137 3137 3138 3139 3140 3141 3142 3143 3144 3145 3146 3147 3149 3150 3151 3152 3152 3153 3154 3155 3155 3156 3156 3156 3156 3157 3157 3158 3158 3159 3160 3160 3160 3161 3161 3162 3162 3163 3164 3164 3165 3165 3165 3166 3166 3167 3167 3168 3168 3169 3169 3170 3170 3170 3171 3171 3171 3172 3172 3172 3173 3173 3173 3173 3174 3174 3174 3175 3174 3175 3175 3175 3175 3175 3175 3175 3174 3174 3174 3174 3174 3174 3174 3174 3174 3174 3174 3174 3173 3173 3173 3172 3172 3171 3171 3171 3170
3128 3128 3129 3130 3132 3134 3135 3135 3136 3137 3138 3139 3140 3142 3143 3144 3145 3146 3147 3149 3150 3150 3151 3152 3153 3153 3154 3155 3155 3155 3155 3156 3156 3156 3157 3158 3159 3159 3160 3160 3160 3161 3162 3162 3163 3163 3164 3164 3165 3165 3165 3166 3166 3167 3168 3168 3169 3169 3170 3170 3170 3170 3171 3171 3171 3172 3172 3172 3172 3173 3173 3174 3174 3174 3174 3174 3174 3174 3174 3174 3174 3174 3174 3174 3174 3174 3174 3174 3173 3173 3174 3174 3173 3173 3173 3172 3172 3172 3171 3171 3171 3170 3170
3125 3126 3126 3128 3130 3131 3132 3134 3135 3135 3137 3138 3139 3140 3141 3142 3143 3145 3145 3147 3148 3149 3150 3150 3151 3151 3152 3153 3154 3154 3154 3155 3155 3155 3156 3157 3157 3158 3159 3159 3160 3160 3161 3161 3162 3162 3163 3164 3164 3165 3165 3165 3166 3166 3167 3167 3168 3168 3169 3169 3169 3170 3170 3170 3171 3171 3171 3171 3172 3172 3172 3173 3173 3173 3174 3174 3173 3173 3174 3174 3173 3173 3173 3173 3173 3173 3173 3173 3173 3173 3173 3173 3173 3172 3172 3172 3171 3171 3171 3170 3170 3170 3170
3123 3124 3124 3126 3128 3129 3130 3132 3133 3134 3134 3136 3138 3139 3140 3141 3142 3143 3144 3145 3146 3147 3148 3148 3149 3150 3151 3152 3152 3153 3153 3154 3154 3154 3155 3155 3156 3157 3157 3158 3158 3159 3160 3160 3161 3161 3162 3163 3163 3164 3164 3165 3165 3165 3166 3166 3167 3167 3168 3168 3169 3169 3169 3170 3170 3170 3170 3171 3171 3171 3171 3172 3172 3172 3172 3173 3173 3173 3173 3173 3173 3172 3172 3172 3172 3172 3172 3172 3172 3172 3172 3172 3172 3172 3171 3171 3171 3170 3170 3170 3170 3169 3169
3120 3121 3122 3124 3126 3128 3129 3130 3131 3132 3132 3134 3136 3137 3138 3139 3140 3141 3142 3143 3144 3145 3146 3146 3147 3149 3149 3150 3151 3152 3152 3153 3153 3153 3154 3154 3155 3155 3156 3157 3157 3158 3159 3159 3160 3160 3161 3162 3162 3163 3163 3164 3164 3164 3165 3165 3166 3166 3167 3167 3168 3168 3168 3169 3169 3170 3170 3170 3170 3170 3171 3171 3171 3171 3172 3171 3172 3172 3172 3172 3172 3172 3172 3171 3171 3172 3172 3172 3171 3171 3171 3171 3171 3171 3171 3170 3170 3170 3170 3169 3169 3169 3168
3118 3119 3120 3122 3124 3126 3127 3128 3130 3130 3131 3132 3134 3135 3136 3137 3138 3139 3140 3142 3143 3143 3144 3145 3146 3147 3148 3149 3150 3150 3151 3151 3152 3152 3153 3153 3154 3155 3155 3156 3156 3157 3158 3158 3159 3159 3160 3160 3161 3162 3162 3163 3163 3163 3164 3164 3165 3165 3166 3166 3166 3167 3167 3168 3168 3169 3169 3169 3169 3170 3170 3170 3170 3170 3171 3171 3171 3171 3171 3171 3171 3171 3171 3171 3171 3171 3171 3171 3171 3171 3171 3170 3170 3170 3170 3170 3170 3169 3169 3169 3168 3168 3168
3115 3117 3118 3119 3121 3123 3125 3126 3128 3130 3130 3130 3131 3133 3134 3135 3136 3137 3138 3140 3141 3142 3143 3144 3144 3145 3146 3147 3148 3149 3150 3150 3151 3151 3152 3152 3153 3153 3154 3155 3155 3156 3156 3157 3158 3158 3159 3160 3160 3160 3161 3161 3162 3162 3163 3163 3164 3164 3165 3165 3165 3166 3166 3167 3167 3167 3168 3168 3168 3169 3169 3169 3170 3170 3170 3170 3170 3170 3170 3170 3170 3170 3170 3170 3170 3170 3170 3170 3170 3170 3170 3170 3170 3170 3169 3169 3169 3169 3168 3168 3168 3167 3167
3113 3114 3115 3117 3119 3120 3122 3124 3125 3127 3129 3129 3129 3130 3132 3133 3134 3135 3136 3138 3139 3140 3141 3142 3142 3143 3144 3145 3146 3147 3148 3149 3150 3150 3150 3151 3151 3152 3153 3153 3154 3155 3155 3155 3156 3157 3158 3158 3159 3160 3160 3160 3161 3161 3162 3162 3163 3163 3164 3164 3165 3165 3165 3165 3166 3166 3167 3167 3167 3168 3168 3168 3169 3169 3169 3169 3170 3170 3170 3170 3170 3170 3170 3170 3170 3170 3170 3169 3169 3169 3169 3169 3169 3169 3169 3168 3168 3168 3168 3167 3167 3167 3167
3111 3112 3113 3115 3116 3118 3120 3121 3123 3125 3125 3126 3127 3128 3130 3131 3132 3133 3134 3136 3137 3138 3139 3140 3141 3142 3143 3144 3145 3146 3147 3148 3148 3149 3149 3150 3150 3151 3151 3152 3152 3153 3154 3154 3155 3156 3156 3157 3158 3158 3159 3159 3160 3160 3161 3161 3161 3162 3162 3163 3163 3164 3164 3165 3165 3165 3166 3166 3166 3167 3167 3167 3168 3168 3168 3168 3169 3169 3169 3169 3169 3169 3169 3169 3169 3169 3169 3169 3168 3168 3168 3168 3168 3168 3167 3167 3167 3167 3167 3166 3166 3166 3166
3108 3109 3111 3112 3114 3115 3117 3118 3120 3122 3123 3124 3125 3126 3127 3128 3130 3131 3132 3134 3135 3136 3138 3138 3139 3140 3141 3142 3143 3144 3145 3146 3147 3147 3148 3148 3149 3150 3150 3151 3151 3152 3152 3153 3154 3154 3155 3155 3156 3156 3157 3158 3158 3159 3160 3160 3160 3161 3161 3162 3162 3163 3163 3163 3164 3164 3165 3165 3165 3166 3166 3166 3167 3167 3167 3167 3168 3168 3168 3168 3168 3168 3168 3168 3168 3168 3168 3168 3167 3167 3167 3167 3167 3167 3166 3166 3166 3166 3166 3165 3165 3165 3165
3105 3106 3108 3110 3111 3113 3114 3115 3117 3120 3121 3122 3123 3124 3125 3126 3127 3128 3130 3131 3133 3135 3136 3137 3138 3139 3140 3140 3141 3142 3143 3144 3145 3146 3147 3147 3148 3148 3149 3149 3150 3150 3151 3151 3152 3153 3153 3154 3154 3155 3155 3156 3157 3158 3159 3159 3159 3160 3160 3160 3161 3161 3162 3162 3163 3163 3164 3164 3164 3165 3165 3165 3166 3166 3166 3166 3166 3167 3167 3167 3167 3167 3167 3167 3167 3167 3167 3166 3166 3166 3166 3166 3166 3166 3165 3165 3165 3165 3165 3165 3165 3165 3164
3103 3105 3106 3107 3109 3110 3111 3112 3115 3117 3119 3120 3120 3121 3122 3123 3125 3126 3127 3129 3131 3133 3134 3135 3136 3137 3138 3139 3140 3141 3142 3143 3144 3145 3145 3146 3146 3147 3147 3148 3149 3149 3150 3150 3151 3151 3152 3152 3153 3153 3154 3155 3156 3157 3157 3158 3158 3159 3159 3159 3160 3160 3160 3161 3162 3162 3163 3163 3163 3164 3164 3164 3165 3165 3165 3165 3165 3165 3165 3165 3165 3165 3166 3166 3166 3166 3165 3165 3165 3165 3165 3165 3165 3165 3165 3165 3164 3164 3164 3164 3164 3163 3163
3101 3102 3104 3105 3106 3107 3108 3110 3112 3115 3116 3117 3118 3119 3119 3120 3122 3123 3125 3127 3129 3130 3132 3133 3134 3135 3136 3137 3139 3140 3140 3141 3142 3143 3144 3144 3145 3145 3146 3146 3147 3148 3148 3149 3149 3150 3150 3150 3151 3151 3152 3153 3154 3155 3156 3156 3157 3157 3158 3158 3159 3159 3159 3160 3160 3161 3161 3162 3162 3163 3163 3163 3164 3164 3164 3164 3164 3165 3165 3165 3165 3165 3165 3165 3165 3165 3165 3165 3165 3165 3164 3164 3164 3164 3164 3163 3163 3163 3163 3162 3162 3162 3162
3099 3100 3101 3102 3103 3104 3105 3107 3109 3112 3113 3115 3116 3116 3115 3116 3118 3121 3122 3124 3126 3128 3130 3131 3132 3134 3135 3136 3137 3138 3139 3140 3140 3141 3142 3142 3143 3144 3144 3145 3145 3146 3147 3147 3148 3148 3149 3149 3149 3150 3151 3152 3153 3154 3154 3155 3155 3156 3156 3157 3157 3158 3158 3159 3159 3160 3160 3160 3161 3161 3162 3162 3162 3163 3163 3163 3163 3163 3163 3163 3163 3163 3164 3164 3164 3164 3164 3164 3164 3164 3164 3163 3163 3163 3163 3162 3162 3162 3162 3161 3161 3161 3161
3096 3097 3098 3100 3101 3102 3103 3104 3106 3109 3110 3111 3113 3115 3113 3113 3116 3119 3120 3122 3124 3126 3128 3129 3130 3132 3133 3134 3135 3136 3137 3137 3138 3139 3140 3140 3141 3142 3142 3143 3144 3144 3145 3145 3146 3146 3147 3147 3148 3149 3149 3150 3151 3152 3153 3153 3154 3155 3155 3156 3156 3157 3157 3158 3158 3158 3159 3159 3160 3160 3160 3161 3161 3161 3161 3162 3162 3162 3162 3162 3162 3162 3162 3162 3162 3162 3162 3162 3162 3162 3162 3162 3162 3162 3162 3161 3161 3161 3160 3160 3160 3160 3160
3094 3095 3096 3097 3098 3099 3100 3101 3103 3105 3108 3109 3110 3112 3113 3114 3116 3117 3119 3120 3122 3124 3125 3127 3128 3130 3131 3132 3133 3134 3135 3135 3136 3137 3138 3139 3139 3140 3140 3141 3141 3142 3143 3144 3144 3145 3145 3145 3146 3147 3148 3149 3150 3150 3151 3152 3153 3154 3154 3155 3155 3156 3156 3156 3157 3157 3157 3158 3158 3159 3159 3160 3160 3160 3160 3160 3161 3161 3161 3161 3161 3161 3161 3161 3161 3161 3161 3161 3161 3161 3161 3161 3161 3161 3161 3160 3160 3160 3160 3159 3159 3158 3158
3093 3093 3093 3095 3095 3096 3097 3099 3100 3102 3105 3107 3108 3109 3111 3113 3114 3115 3116 3118 3120 3121 3123 3124 3126 3128 3129 3130 3131 3132 3133 3134 3135 3136 3136 3136 3137 3137 3138 3139 3139 3140 3140 3141 3142 3142 3143 3143 3144 3145 3146 3147 3148 3149 3150 3150 3151 3152 3153 3154 3155 3155 3155 3155 3156 3156 3156 3156 3157 3157 3158 3158 3158 3159 3159 3159 3160 3160 3160 3160 3160 3160 3160 3160 3160 3160 3160 3160 3160 3160 3160 3160 3160 3160 3160 3159 3159 3159 3158 3158 3157 3157 3157
3092 3092 3091 3092 3093 3094 3095 3096 3097 3099 3102 3105 3106 3106 3107 3109 3111 3112 3112 3114 3116 3118 3120 3121 3123 3125 3127 3128 3129 3130 3131 3132 3133 3134 3134 3134 3135 3136 3136 3137 3137 3138 3139 3139 3140 3140 3140 3141 3142 3143 3145 3145 3146 3147 3148 3149 3150 3150 3151 3152 3153 3154 3154 3154 3154 3155 3155 3155 3155 3156 3156 3157 3157 3157 3158 3158 3158 3158 3159 3159 3159 3159 3159 3158 3158 3158 3158 3158 3158 3158 3158 3158 3158 3158 3158 3158 3158 3157 3157 3156 3156 3156 3155
3089 3090 3090 3090 3091 3092 3093 3094 3095 3096 3099 3101 3103 3103 3104 3106 3107 3109 3110 3111 3113 3115 3116 3118 3120 3123 3125 3126 3127 3128 3129 3130 3131 3132 3132 3133 3134 3135 3135 3135 3135 3136 3136 3137 3137 3138 3138 3139 3140 3141 3143 3144 3145 3146 3147 3147 3148 3149 3150 3151 3152 3153 3153 3153 3153 3153 3153 3154 3154 3155 3155 3155 3155 3156 3156 3156 3157 3157 3157 3157 3157 3157 3157 3157 3157 3157 3157 3157 3157 3157 3157 3157 3156 3156 3156 3156 3156 3156 3156 3155 3155 3155 3154
3085 3086 3088 3089 3089 3089 3090 3091 3092 3093 3096 3097 3099 3100 3100 3102 3104 3105 3107 3108 3110 3112 3114 3116 3118 3120 3122 3123 3124 3125 3126 3128 3129 3130 3131 3132 3133 3133 3133 3133 3133 3133 3134 3135 3135 3136 3136 3137 3139 3140 3141 3142 3144 3144 3145 3146 3147 3147 3148 3149 3150 3151 3151 3151 3151 3151 3152 3152 3153 3153 3153 3154 3154 3154 3155 3155 3155 3155 3155 3156 3156 3156 3155 3155 3155 3155 3155 3155 3155 3155 3155 3155 3155 3155 3155 3155 3155 3155 3154 3154 3154 3153 3153
3082 3083 3084 3086 3087 3087 3088 3089 3090 3091 3092 3094 3096 3097 3098 3099 3100 3102 3104 3105 3106 3108 3110 3113 3115 3117 3119 3120 3121 3122 3124 3125 3127 3128 3129 3129 3130 3130 3130 3130 3131 3132 3133 3133 3133 3134 3134 3136 3137 3139 3140 3141 3142 3143 3144 3144 3145 3146 3147 3148 3149 3149 3150 3150 3150 3150 3150 3151 3151 3151 3152 3152 3152 3153 3153 3153 3154 3154 3154 3154 3154 3154 3154 3154 3154 3154 3154 3154 3154 3154 3153 3153 3153 3153 3153 3153 3153 3153 3153 3152 3152 3152 3151
3081 3081 3080 3082 3084 3085 3085 3086 3088 3089 3090 3091 3093 3094 3095 3096 3097 3099 3100 3102 3104 3105 3107 3110 3112 3114 3116 3117 3119 3120 3121 3123 3125 3126 3126 3126 3127 3127 3128 3129 3130 3131 3131 3131 3131 3131 3133 3135 3137 3138 3139 3140 3140 3141 3142 3143 3143 3144 3145 3146 3147 3147 3148 3148 3149 3149 3149 3149 3149 3150 3150 3150 3150 3151 3151 3151 3152 3152 3152 3152 3152 3152 3152 3152 3152 3152 3152 3152 3152 3152 3152 3152 3152 3152 3152 3152 3151 3151 3151 3151 3150 3150 3150
3079 3079 3078 3078 3080 3082 3083 3084 3085 3086 3088 3089 3089 3090 3092 3093 3095 3096 3097 3099 3101 3103 3104 3106 3109 3111 3113 3115 3117 3118 3120 3121 3123 3124 3124 3124 3125 3126 3127 3128 3128 3129 3129 3128 3129 3130 3133 3135 3136 3137 3137 3138 3139 3139 3140 3141 3142 3143 3143 3144 3145 3145 3146 3147 3147 3147 3148 3148 3148 3148 3148 3148 3149 3149 3150 3150 3150 3150 3150 3150 3150 3150 3150 3150 3150 3150 3150 3150 3150 3150 3150 3150 3150 3150 3150 3150 3150 3150 3149 3149 3149 3149 3149
3075 3076 3076 3075 3076 3078 3080 3081 3082 3084 3085 3086 3086 3087 3088 3090 3092 3093 3095 3096 3098 3099 3100 3102 3105 3108 3110 3113 3115 3116 3118 3119 3120 3121 3122 3122 3123 3124 3125 3125 3125 3126 3126 3127 3128 3130 3132 3134 3134 3135 3135 3136 3137 3138 3139 3139 3140 3140 3141 3142 3143 3144 3144 3145 3145 3146 3146 3146 3146 3146 3146 3146 3147 3147 3148 3148 3148 3148 3148 3148 3149 3149 3149 3149 3149 3149 3149 3149 3149 3149 3148 3148 3148 3148 3148 3148 3148 3148 3148 3148 3147 3147 3147
3072 3073 3074 3073 3073 3074 3075 3078 3080 3081 3082 3083 3084 3084 3084 3086 3088 3090 3091 3093 3094 3094 3096 3098 3101 3104 3107 3110 3112 3113 3115 3116 3118 3119 3120 3120 3121 3122 3122 3123 3124 3125 3125 3126 3127 3129 3130 3131 3131 3132 3133 3134 3135 3136 3137 3137 3138 3138 3139 3140 3140 3141 3142 3142 3143 3144 3144 3144 3145 3145 3145 3145 3145 3145 3145 3146 3146 3146 3146 3146 3146 3147 3147 3147 3147 3147 3147 3147 3147 3147 3147 3147 3147 3147 3146 3146 3146 3146 3146 3146 3146 3145 3145
3068 3070 3070 3070 3070 3070 3071 3074 3076 3078 3079 3080 3081 3082 3081 3082 3083 3085 3088 3090 3091 3091 3091 3093 3095 3099 3102 3105 3108 3110 3111 3113 3115 3116 3117 3118 3118 3119 3120 3121 3122 3122 3123 3124 3125 3126 3127 3128 3129 3130 3131 3132 3133 3133 3135 3135 3135 3136 3137 3138 3138 3139 3139 3140 3141 3142 3142 3143 3143 3143 3143 3143 3143 3143 3143 3144 3144 3144 3144 3144 3145 3145 3145 3145 3145 3145 3145 3145 3145 3145 3145 3145 3145 3145 3145 3145 3144 3144 3144 3144 3144 3144 3144
3065 3066 3067 3067 3067 3067 3068 3070 3072 3074 3075 3076 3077 3078 3078 3078 3080 3082 3085 3087 3089 3090 3089 3090 3092 3095 3098 3102 3104 3106 3107 3110 3111 3113 3114 3115 3115 3116 3117 3118 3119 3120 3120 3121 3122 3123 3124 3125 3126 3128 3129 3129 3130 3131 3132 3133 3134 3134 3135 3135 3136 3136 3137 3138 3139 3140 3140 3140 3140 3140 3140 3140 3140 3141 3141 3141 3141 3142 3142 3142 3142 3142 3143 3143 3143 3143 3143 3143 3143 3143 3143 3143 3143 3143 3143 3143 3142 3142 3142 3142 3142 3142 3142
3061 3063 3063 3064 3064 3064 3065 3067 3069 3070 3072 3073 3074 3074 3075 3075 3077 3079 3082 3085 3086 3087 3087 3088 3089 3092 3095 3098 3100 3102 3104 3106 3108 3110 3111 3112 3113 3114 3115 3116 3116 3117 3118 3119 3119 3120 3121 3122 3124 3125 3126 3127 3128 3129 3130 3130 3131 3132 3133 3133 3133 3134 3135 3135 3136 3137 3137 3138 3138 3138 3138 3138 3138 3139 3139 3139 3139 3140 3140 3140 3140 3140 3140 3140 3140 3140 3141 3141 3141 3141 3141 3141 3141 3141 3141 3140 3140 3140 3140 3140 3140 3140 3140